N8IR-19 Weather Reports


Display with metric or nautical units.
time (UTC)temp
F
wind
direction
speed
MPH
gust
MPH
rain 1hr
in
rain 24hr
in
rain mn
in
humidity
%
barometer
mb
20260509200917 70 225 19.0 23.0 0.00 0.01 0.00 45 983.8
20260509200418 70 225 24.0 31.0 0.00 0.01 0.00 43 983.7
20260509195917 70 203 23.0 30.0 0.00 0.01 0.00 44 983.9
20260509195417 70 225 17.0 27.0 0.00 0.01 0.00 44 983.9
20260509194917 70 225 22.0 28.0 0.00 0.01 0.00 44 984.0
20260509194417 70 225 23.0 30.0 0.00 0.01 0.00 44 984.0
20260509193917 70 225 23.0 30.0 0.00 0.01 0.00 45 984.4
20260509193418 69 225 23.0 27.0 0.00 0.01 0.00 44 984.3
20260509192957 69 203 18.0 36.0 0.00 0.01 0.00 45 984.4
20260509192417 69 225 22.0 30.0 0.00 0.01 0.00 45 984.4
20260509191917 69 225 20.0 32.0 0.00 0.01 0.00 45 984.5
20260509191417 68 225 20.0 26.0 0.00 0.01 0.00 47 984.6
20260509190917 68 225 19.0 23.0 0.00 0.01 0.00 46 984.7
20260509190417 68 225 22.0 27.0 0.00 0.01 0.00 46 984.8
20260509185938 68 225 24.0 31.0 0.00 0.01 0.00 46 984.7
20260509185416 68 225 14.0 20.0 0.00 0.01 0.00 46 984.7
20260509184917 68 225 18.0 23.0 0.00 0.01 0.00 46 984.7
20260509184417 68 225 21.0 28.0 0.00 0.01 0.00 45 984.7
20260509183917 68 203 23.0 27.0 0.00 0.01 0.00 45 984.6
20260509183417 68 225 13.0 19.0 0.00 0.01 0.00 46 984.8
20260509182917 68 203 13.0 25.0 0.00 0.01 0.00 46 984.9
20260509182417 68 225 12.0 16.0 0.00 0.01 0.00 48 985.0
20260509181937 67 180 13.0 21.0 0.00 0.01 0.00 47 985.0
20260509181437 67 225 19.0 24.0 0.00 0.01 0.00 47 985.1
20260509180917 67 203 25.0 32.0 0.00 0.01 0.00 45 985.1
20260509180417 67 225 19.0 23.0 0.00 0.01 0.00 46 985.1
20260509175917 67 203 15.0 28.0 0.00 0.01 0.00 47 985.2
20260509175417 67 225 16.0 21.0 0.00 0.01 0.00 47 985.3
20260509174917 67 225 15.0 21.0 0.00 0.01 0.00 47 985.2
20260509174417 67 225 21.0 28.0 0.00 0.01 0.00 46 985.2
20260509173917 67 248 15.0 18.0 0.00 0.01 0.00 46 985.3
20260509173417 66 225 16.0 22.0 0.00 0.01 0.00 47 985.3
20260509172957 66 225 15.0 20.0 0.00 0.01 0.00 47 985.3
20260509172436 66 225 21.0 26.0 0.00 0.01 0.00 48 985.3
20260509171916 66 203 11.0 16.0 0.00 0.01 0.00 48 985.4
20260509171417 66 180 9.0 16.0 0.00 0.01 0.00 47 985.4
20260509170917 66 225 16.0 20.0 0.00 0.01 0.00 48 985.5
20260509170416 66 225 17.0 21.0 0.00 0.01 0.00 48 985.5
20260509165917 65 203 10.0 15.0 0.00 0.01 0.00 48 985.5
20260509165417 65 203 16.0 22.0 0.00 0.01 0.00 49 985.5
20260509164916 65 203 13.0 23.0 0.00 0.01 0.00 48 985.5
20260509164417 65 225 16.0 22.0 0.00 0.01 0.00 49 985.6
20260509163916 65 203 11.0 18.0 0.00 0.01 0.00 48 985.5
20260509163417 65 225 5.0 9.0 0.00 0.01 0.00 47 985.7
20260509162917 65 225 13.0 15.0 0.00 0.01 0.00 48 985.7
20260509162416 64 225 11.0 13.0 0.00 0.01 0.00 48 985.8
20260509161938 64 248 10.0 14.0 0.00 0.01 0.00 48 985.8
20260509161416 64 225 11.0 12.0 0.00 0.01 0.00 48 985.9
20260509160917 64 225 11.0 13.0 0.00 0.01 0.00 48 985.9
20260509160417 64 225 16.0 19.0 0.00 0.01 0.00 48 985.9
20260509155916 63 225 14.0 17.0 0.00 0.01 0.00 48 985.9
20260509155416 63 225 16.0 23.0 0.00 0.01 0.00 48 985.9
20260509154917 63 203 13.0 18.0 0.00 0.01 0.00 48 986.1
20260509154437 62 225 12.0 16.0 0.00 0.01 0.00 48 986.0
20260509153917 62 225 10.0 15.0 0.00 0.01 0.00 48 986.0
20260509153417 62 203 17.0 20.0 0.00 0.01 0.00 47 986.0
20260509152916 62 225 16.0 20.0 0.00 0.01 0.00 47 986.3
20260509152416 62 248 9.0 11.0 0.00 0.01 0.00 48 986.3
20260509151917 61 225 15.0 20.0 0.00 0.01 0.00 47 986.4
20260509151417 61 225 13.0 15.0 0.00 0.01 0.00 48 986.4
20260509150918 61 248 10.0 13.0 0.00 0.01 0.00 47 986.4
20260509150417 61 225 11.0 16.0 0.00 0.01 0.00 47 986.5
20260509145916 60 225 12.0 17.0 0.00 0.01 0.00 47 986.5
20260509145439 60 225 11.0 13.0 0.00 0.01 0.00 48 986.5
20260509144920 59 225 9.0 12.0 0.00 0.01 0.00 48 986.5
20260509144416 59 248 6.0 8.0 0.00 0.01 0.00 47 986.5
20260509143917 59 248 6.0 8.0 0.00 0.01 0.00 47 986.6
20260509143418 59 248 11.0 14.0 0.00 0.01 0.00 47 986.5
20260509142917 59 225 8.0 11.0 0.00 0.01 0.00 46 986.6
20260509142419 59 248 12.0 15.0 0.00 0.01 0.00 45 986.3
20260509141916 59 248 11.0 21.0 0.00 0.01 0.00 46 986.3
20260509141416 59 248 7.0 10.0 0.00 0.01 0.00 46 986.3
20260509140958 59 225 12.0 15.0 0.00 0.01 0.00 45 986.3
20260509140419 59 225 11.0 13.0 0.00 0.01 0.00 44 986.4
20260509135918 59 248 9.0 11.0 0.00 0.01 0.00 44 986.4
20260509135419 59 225 9.0 12.0 0.00 0.01 0.00 44 986.5
20260509134918 58 225 9.0 12.0 0.00 0.01 0.00 45 986.4
20260509134459 58 225 10.0 12.0 0.00 0.01 0.00 45 986.4
20260509133918 58 225 11.0 13.0 0.00 0.01 0.00 45 986.4
20260509133439 58 225 10.0 13.0 0.00 0.01 0.00 45 986.5
20260509132919 57 225 12.0 17.0 0.00 0.01 0.00 46 986.5
20260509132418 57 225 9.0 12.0 0.00 0.01 0.00 46 986.5
20260509131918 57 225 10.0 13.0 0.00 0.01 0.00 46 986.5
20260509131420 56 225 8.0 11.0 0.00 0.01 0.00 46 986.6
20260509130918 56 225 9.0 12.0 0.00 0.01 0.00 47 986.5
20260509130421 56 248 6.0 10.0 0.00 0.01 0.00 48 986.6
20260509125938 56 225 10.0 11.0 0.00 0.01 0.00 48 986.7
20260509125419 56 225 11.0 14.0 0.00 0.01 0.00 49 986.7
20260509124918 56 225 9.0 15.0 0.00 0.01 0.00 49 986.7
20260509124419 56 225 7.0 11.0 0.00 0.01 0.00 50 986.8
20260509123920 56 225 10.0 13.0 0.00 0.01 0.00 50 986.8
20260509123418 55 225 7.0 9.0 0.00 0.01 0.00 50 986.8
20260509122939 55 203 6.0 7.0 0.00 0.01 0.00 51 986.8
20260509122418 55 203 6.0 7.0 0.00 0.01 0.00 51 986.8
20260509121918 55 203 6.0 9.0 0.00 0.01 0.00 51 986.8
20260509121439 54 203 5.0 7.0 0.00 0.01 0.00 51 986.8
20260509120919 54 203 6.0 10.0 0.00 0.01 0.00 51 986.8
20260509120418 54 203 7.0 10.0 0.00 0.01 0.00 50 986.9
20260509115939 54 203 5.0 8.0 0.00 0.01 0.00 51 986.9
20260509115459 54 203 6.0 9.0 0.00 0.01 0.00 51 986.8
20260509115038 54 203 6.0 9.0 0.00 0.01 0.00 51 986.8
20260509114418 54 203 5.0 7.0 0.00 0.01 0.00 51 986.9
20260509113918 54 225 6.0 8.0 0.00 0.01 0.00 51 986.8
20260509113418 54 203 5.0 8.0 0.00 0.01 0.00 51 986.8
20260509112918 54 203 3.0 7.0 0.00 0.01 0.00 51 986.9
20260509112418 54 203 4.0 6.0 0.00 0.01 0.00 51 987.0
20260509111918 54 203 7.0 9.0 0.00 0.01 0.00 50 987.0
20260509111418 54 225 5.0 7.0 0.00 0.01 0.00 50 986.9
20260509110938 54 225 4.0 9.0 0.00 0.01 0.00 50 986.9
20260509110418 54 203 6.0 8.0 0.00 0.01 0.00 50 986.8
20260509105938 54 203 3.0 6.0 0.00 0.01 0.00 50 986.8
20260509105418 54 180 3.0 4.0 0.00 0.01 0.00 50 986.7
20260509104918 54 203 2.0 4.0 0.00 0.01 0.00 50 986.7
20260509104418 54 225 4.0 6.0 0.00 0.01 0.00 50 986.6
20260509103918 54 225 3.0 5.0 0.00 0.01 0.00 50 986.6
20260509103438 54 203 5.0 6.0 0.00 0.01 0.00 50 986.6
20260509102918 54 203 6.0 7.0 0.00 0.01 0.00 50 986.6
20260509102418 54 203 5.0 7.0 0.00 0.01 0.00 50 986.6
20260509101918 54 203 2.0 3.0 0.00 0.01 0.00 50 986.5
20260509101418 54 203 5.0 6.0 0.00 0.01 0.00 50 986.6
20260509100918 54 203 2.0 3.0 0.00 0.01 0.00 50 986.5
20260509100418 54 203 4.0 6.0 0.00 0.01 0.00 50 986.7
20260509095918 54 203 4.0 7.0 0.00 0.01 0.00 50 986.6
20260509095417 54 203 3.0 5.0 0.00 0.01 0.00 50 986.6
20260509094918 54 203 3.0 4.0 0.00 0.01 0.00 50 986.6
20260509094418 54 203 2.0 3.0 0.00 0.01 0.00 50 986.6
20260509093938 54 180 4.0 6.0 0.00 0.01 0.00 50 986.7
20260509093419 54 225 4.0 6.0 0.00 0.01 0.00 50 986.8
20260509092918 54 203 6.0 7.0 0.00 0.01 0.00 50 986.8
20260509092438 54 225 5.0 7.0 0.00 0.01 0.00 50 986.9
20260509091938 54 225 5.0 6.0 0.00 0.01 0.00 50 986.9
20260509091422 54 225 5.0 6.0 0.00 0.01 0.00 50 986.9
20260509090918 54 225 5.0 6.0 0.00 0.01 0.00 50 986.9
20260509090417 55 225 6.0 7.0 0.00 0.01 0.00 50 986.9
20260509085918 55 225 7.0 8.0 0.00 0.01 0.00 50 986.9
20260509085421 55 225 7.0 8.0 0.00 0.01 0.00 50 986.9
20260509084917 55 225 7.0 8.0 0.00 0.01 0.00 50 987.0
20260509084421 55 203 6.0 8.0 0.00 0.01 0.00 50 987.0
20260509083917 55 203 7.0 8.0 0.00 0.01 0.00 50 987.0
20260509083420 55 225 7.0 10.0 0.00 0.01 0.00 50 987.1
20260509082918 55 203 6.0 7.0 0.00 0.01 0.00 50 987.2
20260509082418 55 225 7.0 9.0 0.00 0.01 0.00 50 987.1
20260509081920 55 203 6.0 8.0 0.00 0.01 0.00 50 987.1
20260509081418 55 225 7.0 8.0 0.00 0.01 0.00 50 987.1
20260509080918 55 225 7.0 8.0 0.00 0.01 0.00 50 987.2
20260509080418 55 225 7.0 8.0 0.00 0.01 0.00 50 987.3
20260509075918 55 203 7.0 8.0 0.00 0.01 0.00 50 987.4
20260509075417 55 225 8.0 11.0 0.00 0.01 0.00 50 987.3
20260509074918 55 203 6.0 7.0 0.00 0.01 0.00 50 987.6
20260509074418 55 203 7.0 8.0 0.00 0.01 0.00 50 987.4
20260509073939 55 203 8.0 9.0 0.00 0.01 0.00 50 987.4
20260509073418 55 203 7.0 8.0 0.00 0.01 0.00 50 987.4
20260509072918 55 203 8.0 9.0 0.00 0.01 0.00 50 987.4
20260509072418 55 203 6.0 7.0 0.00 0.01 0.00 50 987.4
20260509071917 55 203 6.0 8.0 0.00 0.01 0.00 50 987.4
20260509071418 55 225 7.0 8.0 0.00 0.01 0.00 50 987.4
20260509070938 55 225 7.0 10.0 0.00 0.01 0.00 50 987.5
20260509070418 55 225 7.0 8.0 0.00 0.01 0.00 50 987.5
20260509065918 54 225 6.0 9.0 0.00 0.01 0.00 50 987.4
20260509065418 54 203 4.0 7.0 0.00 0.01 0.00 50 987.4
20260509064917 54 180 3.0 4.0 0.00 0.01 0.00 50 987.5
20260509064418 55 180 3.0 4.0 0.00 0.01 0.00 50 987.5
20260509063938 55 225 3.0 5.0 0.00 0.01 0.00 50 987.5
20260509063417 55 225 4.0 7.0 0.00 0.01 0.00 50 987.5
20260509062917 55 203 4.0 5.0 0.00 0.01 0.00 50 987.6
20260509062418 55 203 5.0 7.0 0.00 0.01 0.00 50 987.8
20260509061918 54 203 7.0 9.0 0.00 0.01 0.00 50 987.8
20260509061417 54 203 6.0 7.0 0.00 0.01 0.00 50 987.9
20260509060938 54 225 7.0 10.0 0.00 0.01 0.00 50 987.9
20260509060418 54 203 7.0 10.0 0.00 0.01 0.00 50 988.1
20260509055917 54 225 4.0 6.0 0.00 0.01 0.00 50 988.1
20260509055438 54 203 6.0 11.0 0.00 0.01 0.00 50 988.1
20260509054917 54 203 7.0 10.0 0.00 0.01 0.00 50 988.1
20260509054417 54 225 7.0 9.0 0.00 0.01 0.00 50 988.2
20260509053918 54 203 7.0 8.0 0.00 0.01 0.00 50 988.3
20260509053418 54 203 7.0 9.0 0.00 0.01 0.00 50 988.3
20260509052918 54 203 4.0 6.0 0.00 0.01 0.00 50 988.2
20260509052417 54 203 5.0 8.0 0.00 0.01 0.00 50 988.2
20260509051918 54 225 7.0 9.0 0.00 0.01 0.00 50 988.2
20260509051438 54 203 4.0 5.0 0.00 0.01 0.00 50 988.2
20260509050937 54 180 5.0 8.0 0.00 0.01 0.00 50 988.3
20260509050417 54 203 3.0 4.0 0.00 0.01 0.00 50 988.2
20260509045918 54 203 3.0 6.0 0.00 0.01 0.00 51 988.2
20260509045418 54 180 3.0 6.0 0.00 0.01 0.00 51 988.2
20260509044917 54 203 3.0 7.0 0.00 0.01 0.00 51 988.2
20260509044417 54 203 3.0 5.0 0.00 0.01 0.00 50 988.3
20260509043918 54 180 3.0 5.0 0.00 0.01 0.00 50 988.3
20260509043417 54 203 2.0 3.0 0.00 0.01 0.00 50 988.3
20260509042918 54 180 2.0 5.0 0.00 0.01 0.00 50 988.4
20260509042417 54 203 4.0 6.0 0.00 0.01 0.00 50 988.4
20260509041917 55 203 4.0 6.0 0.00 0.01 0.00 50 988.5
20260509041418 55 203 5.0 8.0 0.00 0.01 0.00 49 988.5
20260509040919 55 203 4.0 6.0 0.00 0.01 0.00 49 988.6
20260509040417 55 225 6.0 8.0 0.00 0.01 0.00 49 988.6
20260509035917 55 225 8.0 10.0 0.00 0.01 0.01 49 988.6
20260509035418 55 203 5.0 7.0 0.00 0.01 0.01 49 988.6
20260509034917 56 203 7.0 11.0 0.00 0.01 0.01 48 988.6
20260509034417 56 203 8.0 12.0 0.00 0.01 0.01 48 988.7
20260509033919 56 203 6.0 10.0 0.00 0.01 0.01 48 988.9
20260509033417 56 225 12.0 14.0 0.00 0.01 0.01 47 989.0
20260509032917 56 225 13.0 14.0 0.00 0.01 0.01 47 988.9
20260509032419 56 225 12.0 14.0 0.00 0.01 0.01 47 989.0
20260509031938 56 225 15.0 17.0 0.00 0.01 0.01 46 989.1
20260509031422 56 225 12.0 15.0 0.00 0.01 0.01 46 989.2
20260509030920 56 225 7.0 9.0 0.00 0.01 0.01 46 989.2
20260509030420 56 248 8.0 10.0 0.00 0.01 0.01 46 989.2
20260509025919 56 225 10.0 12.0 0.00 0.01 0.01 47 989.0
20260509025419 56 225 12.0 15.0 0.00 0.01 0.01 47 989.1
20260509024920 56 225 14.0 17.0 0.00 0.01 0.01 47 989.3
20260509024420 55 225 13.0 15.0 0.00 0.01 0.01 47 989.2
20260509023937 55 225 11.0 13.0 0.00 0.01 0.01 47 989.2
20260509023417 55 225 10.0 12.0 0.00 0.01 0.01 47 989.3
20260509022917 55 225 10.0 12.0 0.00 0.01 0.01 47 989.3
20260509022417 55 225 10.0 13.0 0.00 0.01 0.01 48 989.4
20260509021937 55 225 10.0 13.0 0.00 0.01 0.01 48 989.4
20260509021417 55 203 9.0 11.0 0.00 0.01 0.01 48 989.3
20260509020917 55 225 9.0 12.0 0.00 0.01 0.01 48 989.3
20260509020417 55 225 10.0 12.0 0.00 0.01 0.01 48 989.3
20260509015938 55 225 7.0 10.0 0.00 0.01 0.01 48 989.3
20260509015458 55 225 8.0 10.0 0.00 0.01 0.01 48 989.2
20260509014917 55 203 8.0 10.0 0.00 0.01 0.01 48 989.3
20260509014438 55 203 8.0 12.0 0.00 0.01 0.01 48 989.2
20260509013917 55 225 8.0 10.0 0.00 0.01 0.01 48 989.2
20260509013417 55 203 7.0 9.0 0.00 0.01 0.01 48 989.2
20260509012917 55 225 9.0 12.0 0.00 0.01 0.01 48 989.0
20260509012418 55 225 11.0 14.0 0.00 0.01 0.01 48 989.0
20260509011917 55 225 11.0 14.0 0.00 0.01 0.01 48 989.0
20260509011417 55 225 10.0 15.0 0.00 0.01 0.01 48 989.0
20260509010917 55 203 11.0 13.0 0.00 0.01 0.01 48 988.9
20260509010417 55 203 7.0 10.0 0.00 0.01 0.01 48 988.8
20260509005918 55 225 11.0 14.0 0.00 0.01 0.01 48 989.0
20260509005418 55 225 9.0 11.0 0.00 0.01 0.01 48 989.0
20260509004917 55 225 10.0 13.0 0.00 0.01 0.01 48 989.0
20260509004417 55 225 11.0 16.0 0.00 0.01 0.01 48 989.1
20260509004000 55 203 9.0 12.0 0.00 0.01 0.01 48 989.1
20260509003419 55 203 11.0 14.0 0.00 0.01 0.01 48 989.2
20260509002920 55 225 12.0 14.0 0.00 0.01 0.01 48 989.1
20260509002417 55 203 8.0 12.0 0.00 0.01 0.01 48 989.0
20260509001917 55 203 11.0 13.0 0.00 0.01 0.01 49 989.0
20260509001417 55 225 12.0 15.0 0.00 0.01 0.01 49 989.0
20260509000921 55 203 11.0 15.0 0.00 0.01 0.01 49 989.0
20260509000441 55 203 11.0 14.0 0.00 0.01 0.01 49 988.9
20260508235922 55 203 12.0 15.0 0.00 0.01 0.01 50 989.1
20260508235419 55 225 13.0 16.0 0.00 0.01 0.01 50 989.2
20260508234920 54 203 8.0 11.0 0.00 0.01 0.01 50 989.2
20260508234421 54 203 9.0 12.0 0.00 0.01 0.01 50 989.2
20260508233919 54 203 7.0 10.0 0.00 0.01 0.01 51 989.2
20260508233500 54 225 9.0 12.0 0.00 0.01 0.01 51 989.4
20260508232920 54 203 4.0 5.0 0.00 0.01 0.01 51 989.4
20260508232420 54 203 5.0 10.0 0.00 0.01 0.01 51 989.3
20260508231917 54 180 3.0 5.0 0.00 0.01 0.01 51 989.3
20260508231420 54 203 5.0 8.0 0.00 0.01 0.01 51 989.3
20260508230919 54 225 3.0 7.0 0.01 0.01 0.01 51 989.4
20260508230417 54 203 4.0 6.0 0.01 0.01 0.01 51 989.4
20260508225917 54 203 4.0 6.0 0.01 0.01 0.01 51 989.4
20260508225422 54 225 3.0 6.0 0.01 0.01 0.01 51 989.3
20260508224937 54 180 3.0 5.0 0.01 0.01 0.01 51 989.3
20260508224419 54 203 3.0 5.0 0.01 0.01 0.01 51 989.3
20260508223921 54 225 4.0 7.0 0.01 0.01 0.01 51 989.4
20260508223417 54 203 6.0 9.0 0.01 0.01 0.01 51 989.4
20260508222938 54 203 6.0 10.0 0.01 0.01 0.01 51 989.5
20260508222417 54 203 5.0 9.0 0.01 0.01 0.01 51 989.5
20260508221917 54 225 7.0 10.0 0.01 0.01 0.01 52 989.5
20260508221417 54 203 7.0 10.0 0.01 0.01 0.01 52 989.5
20260508220917 55 203 4.0 7.0 0.00 0.00 0.00 53 989.4
20260508220437 55 203 5.0 11.0 0.00 0.00 0.00 53 989.6
20260508215917 55 180 5.0 8.0 0.00 0.00 0.00 54 989.5
20260508215417 55 203 3.0 5.0 0.00 0.00 0.00 54 989.4
20260508214937 55 203 4.0 8.0 0.00 0.00 0.00 54 989.4
20260508214437 55 180 6.0 11.0 0.00 0.00 0.00 54 989.4
20260508213917 55 180 2.0 4.0 0.00 0.00 0.00 55 989.5
20260508213417 55 203 5.0 8.0 0.00 0.00 0.00 55 989.5
20260508212916 55 203 4.0 7.0 0.00 0.00 0.00 55 989.5
20260508212417 55 203 8.0 10.0 0.00 0.00 0.00 55 989.6
20260508211957 55 203 8.0 10.0 0.00 0.00 0.00 55 989.7
20260508211419 55 203 9.0 12.0 0.00 0.00 0.00 55 989.7
20260508210939 55 225 8.0 10.0 0.00 0.00 0.00 55 989.6
20260508210418 55 225 7.0 8.0 0.00 0.00 0.00 55 989.5
20260508205919 55 225 8.0 10.0 0.00 0.00 0.00 55 989.5
20260508205419 55 225 7.0 8.0 0.00 0.00 0.00 55 989.5
20260508204959 56 225 6.0 8.0 0.00 0.00 0.00 55 989.6
20260508204416 56 225 8.0 11.0 0.00 0.00 0.00 55 989.6
20260508203919 56 225 10.0 13.0 0.00 0.00 0.00 55 989.8
20260508203417 56 225 12.0 15.0 0.00 0.00 0.00 55 989.8
20260508202919 56 225 8.0 12.0 0.00 0.00 0.00 54 989.9
20260508202420 56 225 8.0 11.0 0.00 0.00 0.00 55 990.1
20260508201917 56 225 9.0 13.0 0.00 0.00 0.00 55 990.2
20260508201438 57 225 11.0 15.0 0.00 0.00 0.00 55 990.3